TimeCDT,TemperatureF,Dew PointF,Humidity,Sea Level PressureIn,VisibilityMPH,Wind Direction,Wind SpeedMPH,Gust SpeedMPH,PrecipitationIn,Events,Conditions,WindDirDegrees,DateUTC
12:40 AM,71.6,69.8,94,30.00,7.0,ESE,3.5,-,N/A,,Scattered Clouds,110,2013-07-24 05:40:00
1:40 AM,71.6,69.8,94,29.99,7.0,ESE,4.6,-,N/A,,Scattered Clouds,110,2013-07-24 06:40:00
2:40 AM,71.6,69.8,94,29.98,7.0,East,4.6,-,N/A,,Scattered Clouds,100,2013-07-24 07:40:00
3:40 AM,71.6,69.8,94,29.99,7.0,ESE,3.5,-,N/A,,Partly Cloudy,120,2013-07-24 08:40:00
4:40 AM,71.6,69.8,94,29.95,7.0,Calm,Calm,-,N/A,,Partly Cloudy,0,2013-07-24 09:40:00
5:40 AM,69.8,68.0,94,29.97,7.0,Calm,Calm,-,N/A,,Partly Cloudy,0,2013-07-24 10:40:00
6:40 AM,69.8,68.0,94,29.95,7.0,Calm,Calm,-,N/A,,Scattered Clouds,0,2013-07-24 11:40:00
7:42 AM,75.2,69.8,83,29.98,8.0,ESE,4.6,-,N/A,,Clear,120,2013-07-24 12:42:00
8:44 AM,80.6,75.2,84,29.99,8.0,East,4.6,-,N/A,,Scattered Clouds,100,2013-07-24 13:44:00
9:48 AM,82.4,75.2,79,30.03,8.0,East,5.8,-,N/A,,Scattered Clouds,80,2013-07-24 14:48:00
10:43 AM,82.4,75.2,79,30.01,8.0,ENE,9.2,-,N/A,,Mostly Cloudy,60,2013-07-24 15:43:00
11:48 AM,84.2,75.2,74,30.02,8.0,ENE,9.2,-,N/A,,Mostly Cloudy,70,2013-07-24 16:48:00
12:45 PM,84.2,73.4,70,30.01,8.0,East,10.4,-,N/A,,Mostly Cloudy,80,2013-07-24 17:45:00
1:41 PM,84.2,73.4,70,30.01,8.0,ENE,5.8,-,N/A,,Mostly Cloudy,70,2013-07-24 18:41:00
2:47 PM,84.2,75.2,74,29.99,8.0,ENE,11.5,-,N/A,,Scattered Clouds,70,2013-07-24 19:47:00
3:40 PM,84.2,75.2,74,30.00,8.0,East,9.2,-,N/A,,Scattered Clouds,80,2013-07-24 20:40:00
4:45 PM,84.2,73.4,70,29.96,8.0,East,9.2,-,N/A,,Partly Cloudy,80,2013-07-24 21:45:00
5:42 PM,82.4,73.4,74,29.95,8.0,ENE,11.5,-,N/A,,Partly Cloudy,70,2013-07-24 22:42:00
6:40 PM,80.6,73.4,79,29.95,8.0,ENE,9.2,-,N/A,,Partly Cloudy,70,2013-07-24 23:40:00
7:53 PM,77.0,73.4,89,29.97,8.0,Calm,Calm,-,N/A,,Partly Cloudy,0,2013-07-25 00:53:00
8:42 PM,75.2,73.4,94,29.97,7.0,Calm,Calm,-,N/A,,Partly Cloudy,0,2013-07-25 01:42:00
9:49 PM,73.4,73.4,100,30.02,7.0,ESE,4.6,-,N/A,,Partly Cloudy,110,2013-07-25 02:49:00
10:42 PM,73.4,73.4,100,30.00,7.0,East,3.5,-,N/A,,Partly Cloudy,100,2013-07-25 03:42:00
11:43 PM,73.4,71.6,94,30.01,7.0,East,3.5,-,N/A,,Partly Cloudy,80,2013-07-25 04:43:00